Regional Weather Roundup
Issued by NWS

Home | Current Version | Previous Version | Text Only | Print | Product List | Glossary Off
Versions: 1 2 3 4 5 6 7 8 9 10 11 12 13 14 15 16 17 18 19 20 21 22 23 24 25 26 27 28 29 30 31 32 33 34 35 36 37 38 39 40 41 42 43 44 45 46 47 48 49 50

000
ASUS43 KDTX 011510
RWRMI
MICHIGAN HOURLY REGIONAL WEATHER ROUNDUP
NATIONAL WEATHER SERVICE DETROIT/PONTIAC MI
ISSUED BY NATIONAL WEATHER SERVICE GRAND RAPIDS MI
1000 AM EST WED MAR 01 2017

NOTE: "FAIR" INDICATES FEW OR NO CLOUDS BELOW 12,000 FEET WITH NO
SIGNIFICANT WEATHER AND/OR OBSTRUCTION TO VISIBILITY.

MIZ047>049-052>055-059>063-066>070-074>076-081>083-011600-
SOUTHEAST LOWER MICHIGAN

CITY           SKY/WX    TMP DP  RH WIND       PRES   REMARKS
ALMA           RAIN      46  45  97 E7        29.35F
ANN ARBOR      CLOUDY    52  50  93 S13       29.38F
BAD AXE        CLOUDY    39  39 100 NE9       29.33F FOG     WCI  33
DETROIT CITY   CLOUDY    51  49  92 SW10      29.37F
DETROIT        CLOUDY    53  50  89 SW16      29.40F
FLINT          CLOUDY    50  48  93 S7        29.35F FOG
GROSSE ILE     CLOUDY    45  44  96 S8        29.39S
HILLSDALE      CLOUDY    50  48  93 SW15G23   29.38F
HOWELL         CLOUDY    51  48  87 SW8       29.36R

CITY           SKY/WX    TMP DP  RH WIND       PRES   REMARKS
JACKSON        CLOUDY    53  49  86 SW13G21   29.36R
LANSING        CLOUDY    51  48  89 SW8       29.35F
MASON          CLOUDY    51  50  96 SW6       29.36S
MONROE         CLOUDY    54  51  90 SW8       29.39R
MT. CLEMENS    CLOUDY    52  52 100 SW9       29.34F
PONTIAC        CLOUDY    51  48  89 SW9       29.34F
PORT HOPE        N/A     37  36  96 NE7       29.34F WCI  32
PORT HURON     CLOUDY    50  48  93 S8        29.36F
TRI CITIES     CLOUDY    39  38  96 NE16      29.37S FOG     WCI  30
YPSILANTI      CLOUDY    53  50  89 SW14      29.40R
$$
MIZ043>046-050>051-056>058-064>065-071>073-077>080-011600-
SOUTHWEST LOWER MICHIGAN

CITY           SKY/WX    TMP DP  RH WIND       PRES   REMARKS
BATTLE CREEK   CLOUDY    52  51  97 SW14      29.37S
BENTON HARBOR  FOG       40  39  97 W9        29.43R VSB 1/2 WCI  34
BIG RAPIDS     LGT RAIN  42  41  97 N3        29.32F
COLDWATER      CLOUDY    53  52  96 SW13      29.39S
HOLLAND        FOG       40  39  97 W8        29.37F VSB 1/4 WCI  34
GRAND RAPIDS   CLOUDY    49  47  93 SW10      29.34F FOG
KALAMAZOO      CLOUDY    53  49  86 SW15      29.38S FOG
MARSHALL       CLOUDY    52  51  98 SW10G16   29.37S
MOUNT PLEASANT DRIZZLE   43  43 100 E7        29.35F
MUSKEGON       FOG       41  40  96 W3        29.35F VSB 1/2
STURGIS        CLOUDY    52  50  95 SW14G21   29.39S
$$
MIZ016>042-011600-
NORTHERN LOWER MICHIGAN

CITY           SKY/WX    TMP DP  RH WIND       PRES   REMARKS
ALPENA         FRZ RAIN  31  31 100 N17       29.42F FOG     WCI  19
BEAVER ISLAND  SNOW      23  22  96 N16G26    29.53S VSB 1/4 WCI  10
BELLAIRE       LGT SNOW  32  31  96 N10G16    29.44S VSB 3/4 WCI  24
CADILLAC       LGT SNOW  36  35  96 NE12      29.34F WCI  27
CHARLEVOIX     SNOW      28  28 100 N18       29.51R VSB 1/4 WCI  15
GAYLORD        MIX PCPN  30  28  92 NE10      29.39F FOG     WCI  21
HOUGHTON LAKE  LGT RAIN  36  35  96 NE7       29.38R FOG     WCI  30
MANISTEE       LGT RAIN  35  33  92 N9        29.41S WCI  28
OSCODA         CLOUDY    37  35  94 NE13G22   29.37F WCI  29
PELLSTON       HVY SNOW  24  20  84 N20G28    29.49F VSB 1/4 WCI  10
TRAVERSE CITY  LGT SNOW  33  31  92 N14G20    29.42S FOG     WCI  23
LUDINGTON      LGT RAIN  34  34 100 N16G22    29.37F WCI  24
$$
MIZ007>008-015-011600-
EASTERN UPPER MICHIGAN

CITY           SKY/WX    TMP DP  RH WIND       PRES   REMARKS
KINROSS        SNOW      19  16  88 N17       29.55S VSB 1/4 WCI   4
MACKINAC ISLAN SNOW      22  22 100 NE18G29   29.51S VSB 1/4 WCI   7
NEWBERRY       SNOW      19  19  96 N13G20    29.58R VSB 1/2 WCI   7
S. S. MARIE    SNOW      20  15  81 N8        29.57R VSB 1/2 WCI  10
$$
MIZ004>006-011>014-085-011600-
CENTRAL UPPER MICHIGAN

CITY           SKY/WX    TMP DP  RH WIND       PRES   REMARKS
MANISTIQUE     SNOW      23  22  97 N20G26    29.56S VSB 1/2 WCI   8
ESCANABA       SNOW      25  21  86 N13G28    29.58S VSB 1/2 WCI  13
MENOMINEE      LGT SNOW  26  23  88 N17G24    29.56S FOG     WCI  13
SAWYER-GWINN   SNOW      19  18  93 NE20G28   29.64S VSB 1/4 WCI   4
$$
MIZ001>003-009>011-084-011600-
WESTERN UPPER MICHIGAN

CITY           SKY/WX    TMP DP  RH WIND       PRES   REMARKS
IRON MOUNTAIN  SNOW      23  18  81 N21       29.60F VSB 1/2 WCI   8
HOUGHTON       CLOUDY    19  12  74 NE18G28   29.77S WCI   4
COPPER HARBOR    N/A     22  16  78 E24G33    29.81R WCI   5
IRONWOOD       FLURRIES  21  18  88 NE8G22    29.79R WCI  11
$$

ABBREVIATIONS USED IN REMARKS
   TC - TEMPERATURE IN CELSIUS
  WCI - WIND CHILL INDEX
   HX - HEAT INDEX
  VSB - VISIBILITY




USA.gov is the U.S. government's official web portal to all federal, state and local government web resources and services.